Theta_e
293 293 292 290 291 290 290 290 290 288 288 287 286 286 286 285 285 285 285 285 284 285
291 292 291 290 290 290 290 290 290 288 288 287 286 285 285 285 284 284 284 284 285 284
290 290 291 288 288 289 289 289 288 287 287 286 285 285 285 284 284 283 283 283 283 283
288 288 289 287 287 288 288 287 286 286 286 285 284 284 284 284 283 282 282 282 282 281
288 287 287 287 287 287 286 286 286 286 285 285 284 284 283 283 282 282 281 281 281 280
286 286 286 287 287 286 286 286 286 285 285 284 284 283 283 284 282 282 282 281 280 280
285 285 286 287 287 286 286 285 285 285 285 284 283 283 283 283 282 282 281 281 281 280
285 285 285 285 286 286 285 285 285 284 284 284 283 283 282 282 282 281 280 280 280 280
283 283 283 284 284 285 284 284 284 283 283 283 283 286 287 284 282 280 280 278 279 279
282 280 281 282 282 283 283 283 283 283 283 283 283 287 288 286 282 281 280 280 278 278
281 279 280 280 281 281 282 282 282 282 283 283 282 286 288 286 282 281 280 280 279 278
277 279 280 279 280 280 281 281 282 283 283 282 282 285 287 287 282 280 279 279 279 278
276 279 279 279 279 280 280 280 281 281 282 282 282 284 286 287 282 279 278 278 277 279
275 276 276 279 279 279 279 279 279 278 279 280 280 280 285 287 282 279 277 276 275 276
Wind_Speed
9 9 8 10 10 10 12 13 16 18 17 18 17 14 13 11 11 12 11 12 8 7
6 10 8 7 9 8 9 10 13 16 17 17 17 17 17 13 14 13 12 12 11 8
7 8 8 6 10 11 11 12 13 15 17 17 17 17 16 12 12 13 10 9 13 10
10 8 8 9 10 12 11 12 12 15 17 17 17 17 17 16 15 16 14 13 14 14
13 9 9 11 12 11 12 11 14 13 15 16 17 17 18 19 17 20 18 15 13 14
14 13 12 13 12 11 12 13 13 15 17 16 16 18 18 18 17 18 17 17 18 16
16 16 14 15 12 11 13 13 15 16 16 17 18 18 19 19 19 18 16 16 17 17
16 16 15 13 13 11 12 12 14 14 15 15 16 14 19 19 19 18 17 17 17 17
13 16 17 16 13 11 12 12 12 14 15 17 14 23 27 22 18 19 20 20 18 16
12 15 16 16 14 10 10 11 13 14 14 17 16 26 28 28 14 16 19 19 18 16
16 16 15 16 14 13 9 10 12 13 14 15 14 26 28 31 18 15 16 16 18 19
18 18 17 16 16 13 12 9 10 10 12 14 13 23 26 26 18 15 17 16 16 16
14 16 16 16 17 12 10 12 9 10 11 12 13 19 26 26 12 15 13 14 14 24
14 15 16 18 14 15 12 10 11 10 8 8 11 13 26 32 14 12 12 12 12 13
Wind_Direction
238 233 223 201 198 196 196 202 194 194 192 190 188 185 184 188 194 193 193 193 192 183
239 236 236 214 202 202 200 198 198 199 196 190 189 188 187 192 191 192 192 189 186 185
247 242 240 208 206 206 200 193 189 195 198 193 190 186 188 194 195 193 197 188 180 179
275 251 236 222 218 212 195 190 191 194 196 197 192 190 192 193 185 195 194 196 188 181
304 271 253 243 230 210 201 196 193 197 203 197 197 193 196 193 190 192 194 192 192 182
341 319 280 258 242 222 210 204 207 192 191 205 202 198 200 204 196 197 196 193 185 181
347 336 315 288 261 233 225 210 208 207 208 196 199 200 199 198 195 196 196 193 195 184
339 336 328 310 285 257 232 230 221 211 209 202 204 203 202 198 196 194 190 192 194 191
341 336 331 323 303 277 253 238 224 221 212 210 210 213 209 198 193 192 193 193 192 192
335 329 327 320 312 288 262 239 232 227 222 223 218 211 204 202 203 200 204 197 188 185
331 322 320 318 315 309 282 249 236 233 229 230 226 216 207 196 194 199 211 205 194 184
326 316 319 318 316 310 299 274 250 239 232 228 231 221 213 198 193 197 196 196 193 192
311 307 309 307 308 302 291 284 269 251 242 228 231 219 214 206 196 195 191 188 190 194
305 306 303 299 297 296 292 288 274 259 243 235 226 218 219 212 200 201 185 185 179 188